GW0821 Weather Reports


time (UTC)temp
F
wind
direction
speed
knots
gust
knots
rain 1hr
in
rain 24hr
in
rain mn
in
humidity
%
barometer
mb
20260503234543 55 0 0.0 0.0 0.00 0.00 0.00 92 1013.0
20260503233044 55 0 0.0 0.9 0.00 0.00 0.00 92 1012.9
20260503231542 56 0 0.0 0.0 0.00 0.00 0.00 92 1013.1
20260503230046 55 0 0.0 0.9 0.00 0.00 0.00 91 1013.0
20260503224543 55 0 0.0 0.0 0.00 0.00 0.00 92 1013.1
20260503223054 55 0 0.0 0.9 0.00 0.00 0.00 91 1013.2
20260503221551 56 260 0.0 0.0 0.00 0.00 0.00 90 1013.2
20260503220050 56 0 0.0 0.0 0.00 0.00 0.00 89 1013.4
20260503214543 56 0 0.0 0.0 0.00 0.00 0.00 88 1013.4
20260503213100 56 0 0.0 0.9 0.00 0.00 0.00 88 1013.5
20260503211542 56 0 0.0 0.0 0.00 0.00 0.00 87 1013.5
20260503210048 57 0 0.0 1.7 0.00 0.00 0.00 85 1013.5
20260503204553 57 264 0.0 2.6 0.00 0.00 0.00 83 1013.6
20260503203038 57 224 0.0 2.6 0.00 0.00 0.00 81 1013.7
20260503201547 57 0 0.0 2.6 0.00 0.00 0.00 82 1013.5
20260503200049 57 0 0.0 1.7 0.00 0.00 0.00 82 1013.4
20260503194549 57 153 0.9 3.5 0.00 0.00 0.00 82 1013.2
20260503193052 58 147 0.0 2.6 0.00 0.00 0.00 81 1013.0
20260503191550 58 141 0.9 3.5 0.00 0.00 0.00 80 1013.0
20260503190040 58 149 0.9 4.3 0.00 0.00 0.00 79 1012.8
20260503184552 58 219 0.9 3.5 0.00 0.00 0.00 79 1012.7
20260503183107 58 279 0.9 4.3 0.00 0.00 0.00 79 1012.7
20260503181543 58 0 0.9 4.3 0.00 0.00 0.00 80 1012.6
20260503180050 58 203 0.9 7.0 0.00 0.00 0.00 80 1012.6
20260503174550 58 252 1.7 3.5 0.00 0.00 0.00 81 1012.6
20260503173105 58 270 1.7 5.2 0.00 0.00 0.00 82 1012.6
20260503171545 59 235 2.6 8.7 0.00 0.00 0.00 83 1012.4
20260503081549 61 0 0.0 1.7 0.00 0.00 0.00 78 1015.1
20260503071545 58 155 0.0 1.7 0.00 0.00 0.00 84 1015.4
20260503070104 57 0 0.0 0.9 0.00 0.00 0.00 85 1015.5
20260503054544 54 0 0.0 0.0 0.00 0.00 0.00 89 1015.5
20260503053048 54 0 0.0 1.7 0.00 0.00 0.00 88 1015.5
20260503051552 54 0 0.0 0.0 0.00 0.00 0.00 88 1015.6
20260503050046 55 0 0.0 0.0 0.00 0.00 0.00 88 1015.5
20260503044545 56 0 0.0 0.0 0.00 0.00 0.00 87 1015.3
20260503043050 56 0 0.0 0.9 0.00 0.00 0.00 87 1015.5
20260503041604 57 0 0.0 0.0 0.00 0.00 0.00 88 1015.6
20260503040056 57 0 0.0 0.9 0.00 0.00 0.00 87 1015.7
20260503034604 57 0 0.0 0.9 0.00 0.00 0.00 87 1015.8
20260503033049 57 127 0.0 1.7 0.00 0.00 0.00 85 1015.8
20260503031545 57 0 0.0 1.7 0.00 0.00 0.00 82 1016.0
20260503030054 57 245 0.0 2.6 0.00 0.00 0.00 82 1016.1
20260503024553 57 0 0.0 2.6 0.00 0.00 0.00 88 1016.2
20260503023047 57 0 0.0 2.6 0.00 0.00 0.00 88 1016.0
20260503021547 57 136 0.9 1.7 0.00 0.00 0.00 88 1016.0
20260503020046 57 0 0.0 1.7 0.00 0.00 0.00 88 1016.1
20260503014548 57 248 0.0 1.7 0.00 0.00 0.00 88 1016.3
20260503013042 57 136 0.0 4.3 0.00 0.00 0.00 88 1016.3
20260503011548 57 136 0.9 2.6 0.00 0.00 0.00 87 1016.5
20260503010048 57 0 0.0 0.9 0.00 0.00 0.00 87 1016.7
20260503004546 57 145 0.0 3.5 0.00 0.00 0.00 87 1017.1
20260503003046 57 145 0.9 4.3 0.00 0.00 0.00 86 1017.2
20260503001542 56 0 0.0 0.9 0.00 0.00 0.00 81 1017.4
20260503000041 56 0 0.0 0.0 0.00 0.00 0.00 80 1017.6